sat.trackr.live / text

‹ back to catalog

STARLINK-3282

NORAD 50177 · 2021-125X

PAYLOAD ACTIVE UNKNOWN

§ Identity

Operator
Country
US
Launch date
2021-12-18
Launch site
AFWTR
Launch vehicle
Mass (kg)
RCS (m²)

Purposes: comms

External: N2YO · Heavens-Above · Gunter

§ Orbital elements

Epoch: 2026-09-20T02:44:38.298624Z

Period
93.85 min
Inclination
53.1596°
Eccentricity
0.0001258
Mean motion
15.34394183 rev/d
Perigee alt
461.9 km
Apogee alt
463.6 km
Semi-major
6,840.9 km
B*
-4.1916e-5
RAAN
79.5252°
Arg perigee
84.2319°
Mean anomaly
275.8827°
Rev number
26,618

§ Raw data

STARLINK-32821 50177U 21125X   26263.11433216 -.00001792  00000+0 -41916-4 0  99962 50177  53.1596  79.5252 0001258  84.2319 275.8827 15.34394183266187

JSON: /api/v1/satellites/50177 · /tle

For live sub-satellite position, see the globe view (requires WebGL).

§ Visibility from observer

Set your observer location to see the next 7 days of passes ≥ 10°. The values pass through the URL so the page stays shareable.

No JS? Fill the form by hand. The geolocation button needs JavaScript.